STARLINK-1402 (45685 NORAD) Tracking and Keplerian Element Data

This shows tracking and keplerian element data for the satellite.

Feedback or suggestion? Click here.




ElementValue
Catalog45685
NameSTARLINK-1402
Epoch Orbit552
Epoch Day185.50001157
Epoch Year2020
RAAN24.9161
Inclination52.9997
Eccentricity0.0001055
Argument of Perigee77.6862
Mean Anonmoly18.3209
Mean Motion15.62759929
Decay Rate0.00046121
L11 45685U 20035AE 20185.50001157 .00046121 00000-0 50652-3 0 9998
L22 45685 52.9997 24.9161 0001055 77.6862 18.3209 15.62759929 5521

Live tracking and technical data element details for STARLINK-1402 (NORAD 45685). STARLINK-1402 can be tracked NOW for your location showing map with azimuth and elevation plus other details from your city location.

Track the satellite on the map from your city or location and see movement details for azimuth, elevation, latitude, longitude, range, height, and movement on the map or in text.







IsCatalogInMostPopularTable: catalog: 45685, numindb: 4
Update: records affected: 1



GetName: 45685 STARLINK-1402

Hit Count: updated at: Sat, 04 Jul 2020 01:24:53 GMT